Lancaster, PA

8:56 AM EST on December 07, 2016 (GMT -0500)
Lancaster

Weather History for KLNS - August, 2014

Change the Weather History Date:

Friday, August 22, 2014

  Actual Average Record
Temperature  
Mean Temperature 70 °F -  
Max Temperature 77 °F 80 °F 94 °F (1983)
Min Temperature 66 °F 56 °F 33 °F (1996)
Cooling Degree Days 6    
Growing Degree Days 20 (Base 50)    
Moisture  
Dew Point 66 °F    
Average Humidity 85    
Maximum Humidity 96    
Minimum Humidity 69    
Precipitation  
Precipitation 0.00 in - - ()
Sea Level Pressure  
Sea Level Pressure 30.00 in    
Wind  
Wind Speed 3 mph (East)    
Max Wind Speed 9 mph    
Max Gust Speed -    
Visibility 8 miles    
Events      
Averages and records for this station are not official NWS values.
T = Trace of Precipitation, MM = Missing Value Source: NWS Daily Summary

Daily Weather History Graph

Daily Weather History Graph

Search for Another Location

Airport or City:

Trip Planner

Search our weather history database for the weather conditions in past years. The results will help you decide how hot, cold, wet, or windy it might be!

Date:

Astronomy

Aug. 22, 2014 Rise Set
Actual Time 6:23 AM EDT 7:52 PM EDT
Civil Twilight 5:54 AM EDT 8:20 PM EDT
Nautical Twilight 5:20 AM EDT 8:54 PM EDT
Astronomical Twilight 4:44 AM EDT 9:30 PM EDT
Moon 3:43 AM EDT (8/22) 5:59 PM EDT (8/22)
Length of Visible Light 14h 25m
Length of Day
13h 28m
Waning Crescent, 8% of the Moon is Illuminated
Aug 22
Waning Crescent
Aug 25
New
Sep 2
First Quarter
Sep 8
Full
Sep 15
Last Quarter

Hourly Weather History & Observations

Time (EDT) Temp. Dew Point Humidity Pressure Visibility Wind Dir Wind Speed Gust Speed Precip Events Conditions
12:03 AM 71.1 °F 69.1 °F 93% 29.99 in 6.0 mi Calm Calm - N/A   Mostly Cloudy
12:32 AM 71.1 °F 69.1 °F 93% 29.99 in 5.0 mi Calm Calm - N/A   Overcast
12:53 AM 72.0 °F 69.1 °F 91% 29.98 in 8.0 mi SW 3.5 mph - N/A   Overcast
1:36 AM 71.1 °F 69.1 °F 93% 29.99 in 5.0 mi WSW 4.6 mph - N/A   Scattered Clouds
1:53 AM 69.1 °F 66.9 °F 93% 29.98 in 4.0 mi WNW 4.6 mph - N/A   Clear
2:04 AM 69.1 °F 68.0 °F 96% 29.99 in 3.0 mi Calm Calm - N/A   Scattered Clouds
2:13 AM 69.1 °F 68.0 °F 96% 29.99 in 4.0 mi West 4.6 mph - N/A   Mostly Cloudy
2:45 AM 70.0 °F 68.0 °F 93% 29.98 in 2.5 mi NW 3.5 mph - N/A   Overcast
2:53 AM 70.0 °F 68.0 °F 93% 29.97 in 2.5 mi Calm Calm - N/A   Overcast
3:02 AM 70.0 °F 68.0 °F 93% 29.98 in 3.0 mi Calm Calm - N/A   Overcast
3:11 AM 70.0 °F 68.0 °F 93% 29.98 in 3.0 mi Calm Calm - N/A   Overcast
3:45 AM 70.0 °F 68.0 °F 93% 29.98 in 3.0 mi Calm Calm - N/A   Overcast
3:53 AM 70.0 °F 68.0 °F 93% 29.97 in 3.0 mi Calm Calm - N/A   Overcast
4:14 AM 70.0 °F 68.0 °F 93% 29.98 in 3.0 mi Calm Calm - N/A   Overcast
5:01 AM 69.1 °F 66.9 °F 93% 29.99 in 8.0 mi ENE 3.5 mph - N/A   Overcast
5:28 AM 68.0 °F 66.0 °F 93% 29.98 in 9.0 mi East 3.5 mph - N/A   Overcast
5:53 AM 68.0 °F 66.0 °F 93% 29.97 in 10.0 mi East 4.6 mph - N/A   Overcast
6:53 AM 66.9 °F 64.9 °F 93% 29.99 in 8.0 mi Calm Calm - N/A   Mostly Cloudy
7:06 AM 68.0 °F 64.9 °F 90% 30.00 in 8.0 mi Calm Calm - N/A   Scattered Clouds
7:53 AM 68.0 °F 64.9 °F 90% 30.01 in 10.0 mi East 4.6 mph - N/A   Partly Cloudy
8:10 AM 68.0 °F 66.0 °F 93% 30.02 in 10.0 mi East 3.5 mph - N/A   Mostly Cloudy
8:53 AM 69.1 °F 64.9 °F 87% 30.02 in 10.0 mi ENE 6.9 mph - N/A   Overcast
9:20 AM 69.1 °F 64.9 °F 87% 30.04 in 10.0 mi East 4.6 mph - N/A   Overcast
9:53 AM 71.1 °F 64.9 °F 81% 30.03 in 10.0 mi Calm Calm - N/A   Overcast
10:53 AM 73.9 °F 64.9 °F 73% 30.02 in 10.0 mi Calm Calm - N/A   Overcast
11:00 AM 73.9 °F 64.9 °F 73% 30.03 in 10.0 mi ESE 4.6 mph - N/A   Overcast
11:53 AM 75.0 °F 66.0 °F 73% 30.01 in 10.0 mi East 8.1 mph - N/A   Mostly Cloudy
12:53 PM 75.9 °F 66.9 °F 74% 30.01 in 10.0 mi NE 4.6 mph - N/A   Mostly Cloudy
1:53 PM 73.9 °F 66.0 °F 76% 30.01 in 10.0 mi East 4.6 mph - N/A   Overcast
2:53 PM 73.9 °F 66.0 °F 76% 30.00 in 10.0 mi ESE 4.6 mph - N/A   Overcast
3:43 PM 75.0 °F 66.0 °F 73% 29.99 in 10.0 mi ENE 8.1 mph - N/A   Overcast
3:53 PM 75.0 °F 66.0 °F 73% 29.98 in 10.0 mi East 8.1 mph - N/A   Overcast
5:53 PM 75.9 °F 64.9 °F 69% 29.97 in 10.0 mi SE 8.1 mph - N/A   Clear
6:53 PM 75.9 °F 64.9 °F 69% 29.97 in 10.0 mi ESE 4.6 mph - N/A   Overcast
7:53 PM 73.0 °F 66.9 °F 81% 29.99 in 10.0 mi ESE 6.9 mph - N/A   Overcast
8:40 PM 72.0 °F 66.0 °F 81% 30.01 in 10.0 mi ESE 6.9 mph - N/A   Overcast
8:53 PM 72.0 °F 66.0 °F 81% 30.01 in 10.0 mi ESE 5.8 mph - N/A   Overcast
9:02 PM 72.0 °F 66.0 °F 81% 30.01 in 10.0 mi ESE 5.8 mph - N/A   Overcast
9:13 PM 72.0 °F 66.0 °F 81% 30.02 in 10.0 mi SE 6.9 mph - N/A   Overcast
9:34 PM 72.0 °F 64.9 °F 78% 30.02 in 10.0 mi ESE 6.9 mph - N/A   Overcast
9:53 PM 72.0 °F 64.9 °F 78% 30.01 in 10.0 mi ESE 9.2 mph - N/A   Overcast
10:11 PM 71.1 °F 64.9 °F 81% 30.02 in 10.0 mi ESE 6.9 mph - N/A   Overcast
10:53 PM 71.1 °F 64.9 °F 81% 30.02 in 10.0 mi ESE 6.9 mph - N/A   Overcast
11:53 PM 70.0 °F 63.0 °F 78% 30.03 in 10.0 mi ESE 8.1 mph - N/A   Overcast